"TOA5","AWS1","CR1000","7964","CR1000.Std.14","CPU:AWS1_114.CR1","64363","TBL110"
"TIMESTAMP","RECORD","Wind_spd_WVc(1)","Wind_spd_WVc(2)","Air_Temp_Avg","Humidity_Avg","SW_upper_Wm2_Avg","Rain_Tot","Press_Avg","Issui_Tot","Depth_cm","SR50A_Raw","Quality","Ground_Temp_Avg(1)","Ground_Temp_Avg(2)","SW_lower_Wm2_Avg","Albedo_Avg","SWC_per(1)","SWC_per(2)","Period(1)","Period(2)"
"TS","RN","","","","","","","","","","","","","","","","","","",""
"","","WVc","WVc","Avg","Avg","Avg","Tot","Avg","Tot","Smp","Smp","Smp","Avg","Avg","Avg","Avg","Smp","Smp","Smp","Smp"
"2016-04-09 00:00:00",230317,0.23,76.6,4.459,25.76,0,0,864.5444,0,-4.547,3.196,180,6.745,6.291,1.702252,0,51.94,60.56,33.77,35.81
"2016-04-09 00:10:00",230318,0.574,193.7,5.289,23.95,0,0,864.6898,0,-6.116,3.211,181,6.703,6.293,1.865316,0,51.94,60.56,33.77,35.81
"2016-04-09 00:20:00",230319,0.37,198.6,5.425,23.09,0,0,864.7172,0,-4.826,3.194,197,6.68,6.275,1.084341,0,51.94,60.56,33.77,35.81
"2016-04-09 00:30:00",230320,0.492,151.3,5.506,22.99,0,0,864.7067,0,-4.146,3.188,194,6.6,6.253,0.4094674,0,51.99,60.5,33.79,35.79
"2016-04-09 00:40:00",230321,0.226,168.4,5.526,23.66,0,0,864.7151,0,-5.409,3.205,190,6.551,6.257,0.1402822,0,51.94,60.5,33.77,35.79
"2016-04-09 00:50:00",230322,0.41,154.9,5.368,23.8,0,0,864.7151,0,-6.204,3.209,203,6.519,6.246,0.3374137,0,51.99,60.5,33.79,35.79
"2016-04-09 01:00:00",230323,0.503,105.6,5.151,25.33,0,0,864.7298,0,-5.195,3.199,190,6.446,6.244,0.2919134,0,51.94,60.5,33.77,35.79
"2016-04-09 01:10:00",230324,0.229,83.8,5.129,25.93,0,0,864.9363,0,-6.81,3.215,186,6.417,6.261,0.07203015,0,51.99,60.5,33.79,35.79
"2016-04-09 01:20:00",230325,0.305,158.7,4.771,27.68,0,0,864.968,0,-5.241,3.199,188,6.38,6.289,0.1288946,0,51.94,60.5,33.77,35.79
"2016-04-09 01:30:00",230326,0.329,86.8,5.926,23.75,0,0,864.97,0,-4.782,3.194,195,6.313,6.282,0.5989711,0,51.94,60.5,33.77,35.79
"2016-04-09 01:40:00",230327,0.296,72.68,5.922,23.89,0,0,864.97,0,-5.688,3.201,186,6.256,6.253,0.3335967,0,51.99,60.5,33.79,35.79
"2016-04-09 01:50:00",230328,0.367,128.2,5.757,24.98,0,0,864.97,0,-4.528,3.192,194,6.207,6.22,0.07960793,0,51.99,60.5,33.79,35.79
"2016-04-09 02:00:00",230329,0.218,83.2,6.021,24.42,0,0,864.97,0,-5.385,3.199,189,6.172,6.217,0.1516337,0,51.99,60.5,33.79,35.79
"2016-04-09 02:10:00",230330,0.589,195.1,5.821,25.39,0,0,864.97,0,-4.83,3.195,176,6.122,6.215,0.04928091,0,51.94,60.44,33.77,35.78
"2016-04-09 02:20:00",230331,0.337,150.6,5.632,26.94,0,0,864.97,0,-4.732,3.198,187,6.118,6.207,0.07960761,0,51.94,60.5,33.77,35.79
"2016-04-09 02:30:00",230332,0.45,100.6,5.575,27.13,0,0,864.97,0,-5.436,3.2,179,6.08,6.146,0.06444426,0,51.99,60.44,33.79,35.78
"2016-04-09 02:40:00",230333,0.59,62.71,5.948,26.28,0,0,864.7846,0,-5.103,3.193,190,6.038,6.131,0.2994762,0,51.94,60.44,33.77,35.78
"2016-04-09 02:50:00",230334,0.514,141,6.039,27.38,0,0,864.7298,0,-6.044,3.215,188,5.98,6.129,0.280522,0,51.94,60.44,33.77,35.78
"2016-04-09 03:00:00",230335,0.353,22.72,4.956,29.83,0,0,864.8542,0,-5.839,3.202,180,5.948,6.163,0.3980381,0,51.94,60.44,33.77,35.78
"2016-04-09 03:10:00",230336,0.418,110.4,5.956,27.41,0,0,864.9658,0,-5.535,3.198,189,5.931,6.173,0.3715022,0,51.99,60.44,33.79,35.78
"2016-04-09 03:20:00",230337,0.262,84.5,5.934,27.86,0,0,864.9953,0,-4.831,3.196,171,5.87,6.175,0.2084961,0,51.94,60.44,33.77,35.78
"2016-04-09 03:30:00",230338,0.225,81.7,5.789,27.82,0,0,865.1849,0,-5.991,3.204,184,5.814,6.143,0.05307174,0,51.99,60.44,33.79,35.78
"2016-04-09 03:40:00",230339,0.332,66.39,5.726,28.73,0,0,865.2228,0,-5.741,3.207,174,5.79,6.128,0.1516335,0,51.99,60.44,33.79,35.78
"2016-04-09 03:50:00",230340,0.442,67.25,5.052,31.49,0,0,865.2081,0,-5.842,3.209,184,5.782,6.128,0.1250977,0,51.99,60.44,33.79,35.78
"2016-04-09 04:00:00",230341,0.401,341.5,5.41,30.82,0,0,865.0121,0,-4.726,3.191,180,5.775,6.128,0.352548,0,51.94,60.44,33.77,35.78
"2016-04-09 04:10:00",230342,0.549,20.97,6.251,27.53,0,0,864.97,0,-5.079,3.194,179,5.692,6.121,0.5989525,0,51.99,60.38,33.79,35.77
"2016-04-09 04:20:00",230343,0.454,45.03,5.845,30.03,0,0,864.97,0,-6.548,3.212,179,5.676,6.113,0.1288885,0,51.94,60.38,33.77,35.77
"2016-04-09 04:30:00",230344,0.619,65.68,4.854,34.88,0,0,864.97,0,-5.487,3.202,187,5.629,6.133,0.1061435,0,51.99,60.38,33.79,35.77
"2016-04-09 04:40:00",230345,0.365,34.04,6.016,29.64,0,0,864.97,0,-5.836,3.199,193,5.608,6.103,0.6292792,0,51.94,60.38,33.77,35.77
"2016-04-09 04:50:00",230346,0.183,107.5,5.624,32.49,0,0,865.0522,0,-6.144,3.214,174,5.524,6.089,0.2464045,0,51.99,60.38,33.79,35.77
"2016-04-09 05:00:00",230347,0.297,50.28,5.571,31.66,0,0,865.1407,0,-5.789,3.202,187,5.509,6.052,0.5269266,0,51.94,60.38,33.77,35.77
"2016-04-09 05:10:00",230348,0.399,10.13,6.351,30.52,0,0,865.1913,0,-5.432,3.196,178,5.484,6.042,0.727841,0,51.94,60.38,33.77,35.77
"2016-04-09 05:20:00",230349,0.311,39.12,6.046,32.63,0,0,865.2208,0,-4.775,3.19,187,5.44,6.042,0.2729404,0,51.99,60.38,33.79,35.77
"2016-04-09 05:30:00",230350,0.562,35.69,6.935,29.97,0.6015393,0,865.1723,0,-5.503,3.193,183,5.435,6.045,1.095552,0.615,51.99,60.38,33.79,35.77
"2016-04-09 05:40:00",230351,0.465,343.2,7.094,30.25,6.109752,0,865.1238,0,-5.177,3.192,180,5.436,6.03,1.656597,0.306,51.99,60.38,33.79,35.77
"2016-04-09 05:50:00",230352,0.165,349,6.933,30.61,14.02805,0,865.2228,0,-5.48,3.194,180,5.423,5.997,2.771103,0.201,51.99,60.38,33.79,35.77
"2016-04-09 06:00:00",230353,0.338,66.18,6.732,31.88,27.04175,0,865.2608,0,-6.519,3.205,179,5.351,5.999,4.458026,0.166,51.94,60.38,33.77,35.77
"2016-04-09 06:10:00",230354,0.334,60.51,6.793,32.98,43.45237,0,865.4589,0,-5.585,3.198,180,5.341,5.983,7.263247,0.167,51.99,60.38,33.79,35.77
"2016-04-09 06:20:00",230355,0.264,7.472,6.97,33.12,61.75017,0,865.4756,0,-6.695,3.205,184,5.335,5.936,11.94493,0.192,51.94,60.38,33.77,35.77
"2016-04-09 06:30:00",230356,0.176,115.3,6.384,37.9,74.9801,0,865.522,0,-5.279,3.193,184,5.271,5.924,13.74937,0.184,51.94,60.33,33.77,35.75
"2016-04-09 06:40:00",230357,0.536,48.65,7.193,35.09,90.30166,0,865.6758,0,-5.603,3.193,182,5.214,5.92,16.2627,0.181,51.99,60.33,33.79,35.75
"2016-04-09 06:50:00",230358,0.333,139,7.589,36.16,96.26595,0,865.6848,0,-5.581,3.195,174,5.203,5.918,17.96478,0.187,51.99,60.33,33.79,35.75
"2016-04-09 07:00:00",230359,0.365,51.48,7.225,37.52,95.71551,0,865.6984,0,-5.22,3.187,178,5.225,5.919,18.37799,0.192,51.94,60.33,33.77,35.75
"2016-04-09 07:10:00",230360,0.352,297.1,7.894,33.4,111.906,0,865.674,0,-5.063,3.183,170,5.256,5.931,21.52059,0.192,51.99,60.33,33.79,35.75
"2016-04-09 07:20:00",230361,0.449,120.3,8.26,33.47,123.219,0,865.6945,0,-4.955,3.182,174,5.255,5.917,22.6347,0.184,51.99,60.33,33.79,35.75
"2016-04-09 07:30:00",230362,0.423,216.9,8.31,33.44,139.8289,0,865.7148,0,-4.83,3.179,174,5.229,5.892,25.84691,0.185,51.99,60.33,33.79,35.75
"2016-04-09 07:40:00",230363,0.339,235.5,8.56,34.07,202.7786,0,865.8126,0,-4.636,3.177,181,5.168,5.854,29.31178,0.149,51.99,60.33,33.79,35.75
"2016-04-09 07:50:00",230364,0.601,19.97,8.53,31.59,309.8934,0,865.785,0,-4.909,3.18,192,5.148,5.842,33.59583,0.109,51.99,60.33,33.79,35.75
"2016-04-09 08:00:00",230365,0.343,296.9,8.76,32.06,349.9345,0,865.8734,0,-5.36,3.183,190,5.152,5.801,38.90406,0.111,51.94,60.33,33.77,35.75
"2016-04-09 08:10:00",230366,0.381,322.4,8.85,29.87,390.0277,0,865.8903,0,-5.027,3.179,174,5.099,5.782,46.45244,0.119,51.99,60.33,33.79,35.75
"2016-04-09 08:20:00",230367,0.506,341.8,9,30.11,472.4799,0,865.7469,0,-4.823,3.177,174,5.088,5.78,56.55901,0.12,51.99,60.33,33.79,35.75
"2016-04-09 08:30:00",230368,0.389,301.5,9.14,30.71,493.1709,0,865.732,0,-5.156,3.179,170,5.043,5.766,56.61291,0.115,51.99,60.33,33.79,35.75
"2016-04-09 08:40:00",230369,0.879,283.3,9.32,30.35,328.1166,0,865.8119,0,-5.181,3.177,170,5,5.719,65.66744,0.209,51.94,60.33,33.77,35.75
"2016-04-09 08:50:00",230370,0.44,273.8,9.51,30.09,274.6161,0,865.6226,0,-5.378,3.18,192,5.029,5.678,62.95274,0.235,51.99,60.33,33.79,35.75
"2016-04-09 09:00:00",230371,0.88,293.8,9.13,28.6,515.4265,0,865.5474,0,-5.346,3.181,171,5,5.673,64.75282,0.137,51.94,60.33,33.77,35.75
"2016-04-09 09:10:00",230372,0.609,288.4,9.3,29.61,625.2667,0,865.5402,0,-4.805,3.175,176,4.985,5.628,63.9461,0.102,51.99,60.33,33.79,35.75
"2016-04-09 09:20:00",230373,0.437,286.6,9.28,30.08,490.9285,0,865.5043,0,-4.898,3.175,181,4.981,5.622,63.70119,0.132,51.94,60.33,33.77,35.75
"2016-04-09 09:30:00",230374,0.465,275.3,9.32,29.13,349.1374,0,865.5276,0,-4.996,3.176,177,5.031,5.61,66.68379,0.192,51.94,60.27,33.77,35.74
"2016-04-09 09:40:00",230375,0.939,313,9.43,25.91,475.3781,0,865.5306,0,-5.095,3.177,176,5.073,5.559,66.50093,0.148,51.94,60.27,33.77,35.74
"2016-04-09 09:50:00",230376,0.744,287.6,9.58,25.74,322.9869,0,865.6445,0,-5.296,3.179,184,5.063,5.551,65.56806,0.204,51.94,60.27,33.77,35.74
"2016-04-09 10:00:00",230377,0.738,344.9,9.3,25.45,359.2265,0,865.7547,0,-4.784,3.173,192,5.029,5.549,79.72941,0.227,51.94,60.27,33.77,35.74
"2016-04-09 10:10:00",230378,0.66,299.9,9.73,25.51,682.075,0,865.7365,0,-4.806,3.172,189,5.053,5.494,84.20992,0.126,51.94,60.27,33.77,35.74
"2016-04-09 10:20:00",230379,0.515,325.6,9.83,25.35,623.9281,0,865.5897,0,-5.127,3.172,185,5.075,5.472,77.01718,0.123,51.94,60.27,33.77,35.74
"2016-04-09 10:30:00",230380,0.505,319.2,10.17,25.63,706.3119,0,865.6127,0,-5.386,3.176,180,5.094,5.47,87.22856,0.123,51.94,60.27,33.77,35.74
"2016-04-09 10:40:00",230381,0.468,172.9,10.76,26.06,757.4468,0,865.5363,0,-5.318,3.17,192,5.164,5.465,95.51591,0.126,51.88,60.33,33.76,35.75
"2016-04-09 10:50:00",230382,0.669,306.1,10.76,25.57,844.3916,0,865.4782,0,-5.223,3.17,181,5.218,5.462,111.9335,0.132,51.94,60.27,33.77,35.74
"2016-04-09 11:00:00",230383,0.712,334.6,10.87,22.4,940.6021,0,865.2449,0,-3.788,3.155,185,5.266,5.422,131.701,0.14,51.88,60.27,33.76,35.74
"2016-04-09 11:10:00",230384,0.521,323.7,11.53,22.23,1003.992,0,865.0046,0,-5.402,3.167,184,5.352,5.411,144.6576,0.144,51.88,60.27,33.76,35.74
"2016-04-09 11:20:00",230385,0.592,330.6,12.19,22.42,1042.214,0,864.9064,0,-5.797,3.169,182,5.391,5.41,153.0051,0.147,51.88,60.27,33.76,35.74
"2016-04-09 11:30:00",230386,0.726,60.03,12.5,21.93,982.5918,0,864.7075,0,-5.138,3.16,188,5.467,5.339,147.433,0.15,51.88,60.27,33.76,35.74
"2016-04-09 11:40:00",230387,0.592,326.5,12.03,19.42,1032.871,0,864.5504,0,-5.877,3.168,182,5.517,5.306,158.2084,0.153,51.88,60.27,33.76,35.74
"2016-04-09 11:50:00",230388,0.692,334.4,12.33,18.68,1082.925,0,864.4449,0,-5.058,3.16,181,5.617,5.301,169.6118,0.157,51.88,60.27,33.76,35.74
"2016-04-09 12:00:00",230389,0.68,44.48,12.39,17.39,906.6644,0,864.2743,0,-4.273,3.148,194,5.706,5.301,139.5816,0.154,51.88,60.27,33.76,35.74
"2016-04-09 12:10:00",230390,0.607,135.9,13.47,17.8,735.2047,0,864.1838,0,-5.115,3.156,183,5.814,5.301,112.0005,0.152,51.88,60.27,33.76,35.74
"2016-04-09 12:20:00",230391,0.744,333.7,12.57,16.65,853.5782,0,864.1522,0,-5.177,3.159,191,5.9,5.3,135.2745,0.158,51.88,60.27,33.76,35.74
"2016-04-09 12:30:00",230392,0.622,298.1,13,17.05,917.1241,0,863.9396,0,-5.096,3.157,180,5.985,5.301,145.5077,0.157,51.88,60.27,33.76,35.74
"2016-04-09 12:40:00",230393,0.68,289,13,18.55,917.0416,0,863.8828,0,-4.997,3.156,172,6.1,5.305,148.5171,0.161,51.88,60.21,33.76,35.73
"2016-04-09 12:50:00",230394,0.925,321,13.22,17.49,998.007,0,863.8008,0,-5.096,3.156,188,6.185,5.307,161.1639,0.161,51.82,60.27,33.75,35.74
"2016-04-09 13:00:00",230395,0.86,56.23,13.75,19.42,997.7486,0,863.6892,0,-4.414,3.141,179,6.291,5.313,160.5796,0.161,51.82,60.27,33.75,35.74
"2016-04-09 13:10:00",230396,0.589,4.304,14.82,19.82,1009.779,0,863.6955,0,-4.3,3.138,182,6.385,5.307,160.2544,0.159,51.82,60.27,33.75,35.74
"2016-04-09 13:20:00",230397,0.624,297.2,14.53,20.67,991.5328,0,863.6871,0,-5.008,3.147,189,6.492,5.278,154.3632,0.156,51.77,60.27,33.73,35.74
"2016-04-09 13:30:00",230398,0.441,277.4,14.88,22.3,964.8276,0,863.6808,0,-6.089,3.158,180,6.596,5.235,144.8282,0.15,51.82,60.21,33.75,35.73
"2016-04-09 13:40:00",230399,0.591,62.57,14.72,22.38,950.5775,0,863.4766,0,-5.282,3.152,175,6.71,5.238,131.0562,0.138,51.77,60.27,33.73,35.74
"2016-04-09 13:50:00",230400,0.566,306.9,14.42,23.22,903.6085,0,863.4345,0,-5.41,3.154,174,6.823,5.238,106.4725,0.118,51.82,60.21,33.75,35.73
"2016-04-09 14:00:00",230401,0.643,293.7,13.95,24.85,886.5385,0,863.4197,0,-6.426,3.162,191,6.934,5.236,88.13747,0.099,51.77,60.21,33.73,35.73
"2016-04-09 14:10:00",230402,0.634,91.1,14.09,22.29,798.5527,0,863.2577,0,-5.667,3.156,179,7.041,5.238,63.65712,0.08,51.77,60.21,33.73,35.73
"2016-04-09 14:20:00",230403,0.567,285.4,13.98,24.8,256.4543,0,862.9883,0,-3.748,3.138,186,7.179,5.239,53.06795,0.254,51.77,60.21,33.73,35.73
"2016-04-09 14:30:00",230404,0.467,279.9,14.33,21.88,279.8079,0,863.0745,0,-4.97,3.148,186,7.294,5.241,48.5955,0.219,51.77,60.21,33.73,35.73
"2016-04-09 14:40:00",230405,0.267,302.8,14.17,18.75,189.3663,0,863.1356,0,-5.523,3.155,180,7.442,5.254,44.18056,0.283,51.71,60.21,33.72,35.73
"2016-04-09 14:50:00",230406,0.415,348.5,14.26,14.68,247.7608,0,863.1756,0,-4.113,3.14,187,7.582,5.288,42.44384,0.186,51.71,60.21,33.72,35.73
"2016-04-09 15:00:00",230407,0.735,287.2,13.79,17.16,347.1154,0,863.1756,0,-5.166,3.155,174,7.695,5.297,32.90381,0.096,51.71,60.21,33.72,35.73
"2016-04-09 15:10:00",230408,0.425,284,13.44,19.1,298.3349,0,863.1866,0,-4.787,3.152,193,7.813,5.353,34.36654,0.116,51.71,60.27,33.72,35.74
"2016-04-09 15:20:00",230409,0.412,318.6,13.42,18.39,249.9307,0,863.2076,0,-4.96,3.153,182,7.926,5.347,32.8512,0.132,51.71,60.21,33.72,35.73
"2016-04-09 15:30:00",230410,0.402,346.6,13.78,19.42,246.9545,0,863.2571,0,-4.597,3.149,189,8.04,5.349,26.35873,0.108,51.66,60.21,33.7,35.73
"2016-04-09 15:40:00",230411,0.42,330.7,13.35,21.51,237.4835,0,863.4412,0,-4.775,3.151,182,8.1,5.349,19.47238,0.082,51.66,60.21,33.7,35.73
"2016-04-09 15:50:00",230412,0.363,94.2,13.56,23.67,106.2379,0,863.4803,0,-5.36,3.155,177,8.22,5.375,12.34401,0.119,51.66,60.15,33.7,35.71
"2016-04-09 16:00:00",230413,0.521,303.5,13.45,26.15,77.02021,0,863.4947,0,-4.917,3.154,177,8.28,5.428,9.931415,0.129,51.6,60.21,33.69,35.73
"2016-04-09 16:10:00",230414,0.31,182,12.98,27.63,69.49409,0,863.4454,0,-4.567,3.152,177,8.34,5.444,8.662613,0.125,51.6,60.21,33.69,35.73
"2016-04-09 16:20:00",230415,0.33,117.5,12.8,28.58,73.7888,0,863.4365,0,-5.185,3.159,187,8.45,5.472,9.54907,0.129,51.6,60.21,33.69,35.73
"2016-04-09 16:30:00",230416,0.36,51.73,12.79,29.44,71.99649,0,863.5239,0,-4.823,3.155,169,8.48,5.51,9.503495,0.132,51.55,60.21,33.68,35.73
"2016-04-09 16:40:00",230417,0.294,54.99,12.58,30.7,74.48921,0,863.5246,0,-4.588,3.155,185,8.5,5.536,9.886336,0.133,51.55,60.21,33.68,35.73
"2016-04-09 16:50:00",230418,0.182,236.7,12.25,32.79,81.88726,0,863.5247,0,-4.525,3.156,189,8.57,5.578,11.1521,0.136,51.6,60.21,33.69,35.73
"2016-04-09 17:00:00",230419,0.257,43.14,11.96,34.68,86.0975,0,863.5247,0,-4.707,3.158,189,8.59,5.632,12.0275,0.14,51.55,60.15,33.68,35.71
"2016-04-09 17:10:00",230420,0.469,53.02,11.84,35.14,80.91618,0,863.5332,0,-4.77,3.161,168,8.64,5.605,11.35333,0.14,51.55,60.15,33.68,35.71
"2016-04-09 17:20:00",230421,0.312,86.4,11.5,39.28,69.69543,0,863.529,0,-4.904,3.164,190,8.67,5.678,9.508493,0.136,51.49,60.15,33.66,35.71
"2016-04-09 17:30:00",230422,0.33,112,11.28,39.47,62.25801,0,863.5332,0,-5.112,3.167,189,8.68,5.703,8.633417,0.139,51.55,60.15,33.68,35.71
"2016-04-09 17:40:00",230423,0.377,93.7,11.02,41.6,47.77202,0,863.6995,0,-5.143,3.169,173,8.68,5.734,6.440023,0.135,51.49,60.15,33.66,35.71
"2016-04-09 17:50:00",230424,0.5,65.63,10.68,43.61,38.10682,0,863.8154,0,-5.097,3.17,174,8.67,5.752,5.223995,0.137,51.49,60.15,33.66,35.71
"2016-04-09 18:00:00",230425,0.303,99.9,10.39,45.6,21.58954,0,864.0175,0,-5.103,3.172,187,8.63,5.757,2.852551,0.13,51.49,60.09,33.66,35.7
"2016-04-09 18:10:00",230426,0.215,27.57,10,47.56,7.323549,0,864.0302,0,-4.807,3.172,174,8.63,5.823,0.609908,0.073,51.49,60.15,33.66,35.71
"2016-04-09 18:20:00",230427,0.233,50.11,9.51,49.37,0.7818596,0,864.0302,0,-4.659,3.172,192,8.58,5.824,0.003788249,0.001,51.49,60.09,33.66,35.7
"2016-04-09 18:30:00",230428,0.5,28.47,9.31,50.63,0,0,864.0322,0,-4.92,3.177,190,8.59,5.828,0,0,51.49,60.09,33.66,35.7
"2016-04-09 18:40:00",230429,0.25,71.8,9.04,52.24,0,0,864.1332,0,-5.024,3.179,191,8.59,5.822,0,0,51.44,60.09,33.65,35.7
"2016-04-09 18:50:00",230430,0.403,47.03,8.73,53.64,0,0,864.2828,0,-4.929,3.179,192,8.57,5.844,0,0,51.49,60.09,33.66,35.7
"2016-04-09 19:00:00",230431,0.428,88,8.59,54.73,0,0,864.2872,0,-5.264,3.183,190,8.54,5.96,0,0,51.44,60.03,33.65,35.69
"2016-04-09 19:10:00",230432,0.61,144.2,8.57,54.95,0,0,864.3043,0,-5.143,3.182,187,8.56,5.966,0.01515396,0,51.38,60.09,33.64,35.7
"2016-04-09 19:20:00",230433,0.534,163.1,8.47,55.55,0,0,864.5037,0,-5.383,3.185,182,8.51,5.982,0.02273263,0,51.44,60.03,33.65,35.69
"2016-04-09 19:30:00",230434,0.798,152.7,8.45,55.84,0,0,864.6071,0,-5.09,3.182,187,8.47,6.037,0.00378908,0,51.38,60.03,33.64,35.69
"2016-04-09 19:40:00",230435,0.713,150,8.55,55.61,0,0,864.8072,0,-5.426,3.184,182,8.51,6.097,0,0,51.38,60.03,33.64,35.69
"2016-04-09 19:50:00",230436,0.785,136.6,8.61,55.92,0,0,864.8719,0,-5.434,3.185,192,8.47,6.116,0,0,51.44,60.03,33.65,35.69
"2016-04-09 20:00:00",230437,0.754,129.8,8.54,56.83,0,0,865.0012,0,-5.614,3.187,182,8.46,6.122,0,0,51.38,59.97,33.64,35.67
"2016-04-09 20:10:00",230438,0.635,143,8.42,57.46,0,0,865.1266,0,-5.615,3.187,187,8.37,6.187,0,0,51.38,60.03,33.64,35.69
"2016-04-09 20:20:00",230439,0.798,126.9,8.36,57.67,0,0,865.1317,0,-5.261,3.184,184,8.37,6.227,0,0,51.38,60.03,33.64,35.69
"2016-04-09 20:30:00",230440,0.749,153.9,8.34,58.08,0,0,865.1508,0,-5.516,3.187,189,8.36,6.213,0,0,51.38,59.97,33.64,35.67
"2016-04-09 20:40:00",230441,0.669,159.5,8.16,59.07,0,0,865.1656,0,-5.619,3.189,185,8.32,6.213,0,0,51.38,60.03,33.64,35.69
"2016-04-09 20:50:00",230442,0.596,161.8,8.08,59.56,0,0,865.334,0,-5.619,3.189,192,8.28,6.214,0,0,51.38,60.03,33.64,35.69
"2016-04-09 21:00:00",230443,0.377,147.4,7.956,60.25,0,0,865.3846,0,-5.116,3.186,189,8.21,6.265,0,0,51.33,59.97,33.62,35.67
"2016-04-09 21:10:00",230444,0.235,147.4,7.75,61.18,0,0,865.3846,0,-5.265,3.186,186,8.21,6.317,0.03410587,0,51.44,59.97,33.65,35.67
"2016-04-09 21:20:00",230445,0.112,137.3,7.968,60.49,0,0,865.3846,0,-5.824,3.192,194,8.14,6.335,0.04547449,0,51.38,59.91,33.64,35.66
"2016-04-09 21:30:00",230446,0.156,119.6,7.751,61.4,0,0,865.3783,0,-5.904,3.195,196,8.12,6.303,0.01136862,0,51.33,59.91,33.62,35.66
"2016-04-09 21:40:00",230447,0.082,196,7.501,62.62,0,0,865.3615,0,-5.777,3.194,189,8.05,6.299,0,0,51.38,59.91,33.64,35.66
"2016-04-09 21:50:00",230448,0.065,83,7.615,62.34,0,0,865.3846,0,-5.827,3.194,189,8.03,6.299,0.07958036,0,51.38,59.91,33.64,35.66
"2016-04-09 22:00:00",230449,0.168,140.2,6.834,66.1,0,0,865.3657,0,-6.266,3.207,193,8.06,6.299,0.02652679,0,51.33,59.91,33.62,35.66
"2016-04-09 22:10:00",230450,0.354,153.5,5.697,71.98,0,0,865.1677,0,-5.208,3.2,192,7.972,6.301,0,0,51.38,59.91,33.64,35.66
"2016-04-09 22:20:00",230451,0.362,148.1,5.778,72.16,0,0,865.0687,0,-5.231,3.198,197,7.959,6.342,0,0,51.38,59.91,33.64,35.66
"2016-04-09 22:30:00",230452,0.491,147.1,6.006,71.62,0,0,864.8917,0,-5.281,3.197,223,7.858,6.383,0.0833699,0,51.33,59.91,33.62,35.66
"2016-04-09 22:40:00",230453,0.511,142.5,6.121,71.52,0,0,864.8791,0,-5.382,3.198,211,7.919,6.385,0.01136862,0,51.38,59.91,33.64,35.66
"2016-04-09 22:50:00",230454,0.486,150,6.285,70.78,0,0,864.8791,0,-5.659,3.2,189,7.805,6.383,0.1250549,0,51.33,59.91,33.62,35.66
"2016-04-09 23:00:00",230455,0.481,138,6.229,70.17,0,0,864.8791,0,-5.685,3.201,205,7.778,6.393,0.04168495,0,51.33,59.91,33.62,35.66
"2016-04-09 23:10:00",230456,0.295,122.7,6.397,68.62,0,0,864.8749,0,-5.556,3.197,210,7.712,6.403,0.1477921,0,51.33,59.91,33.62,35.66
"2016-04-09 23:20:00",230457,0.392,122.7,6.52,66.95,0,0,864.8791,0,-5.683,3.199,191,7.704,6.403,0.1136862,0,51.33,59.91,33.62,35.66
"2016-04-09 23:30:00",230458,0.276,139.1,6.371,66.91,0,0,864.8791,0,-5.535,3.198,228,7.689,6.398,0.01515839,0,51.38,59.85,33.64,35.64
"2016-04-09 23:40:00",230459,0.407,128.7,6.435,66.07,0,0,864.8791,0,-5.898,3.201,199,7.617,6.404,0.1136924,0,51.33,59.85,33.62,35.64
"2016-04-09 23:50:00",230460,0.11,108.2,6.72,64.01,0,0,864.9444,0,-5.8,3.199,205,7.678,6.41,0.1515965,0,51.38,59.85,33.64,35.64
